Flag for U.S.A. Weather past 2 weeks in Midland, Texas, U.S.A.

Now
44 °F

Clear.


Feels Like: 41 °F
Forecast: 40 / 69 °F
Wind: 6 mph from West

Location: Midland - Midland Airpark

Current Time: Jan 25, 2015 at 11:22:03 PM

Latest Report: Jan 25, 2015 at 10:55 PM


Visibility: 10 mi

Pressure: 30.28 "Hg

Humidity: 60%

Dew point: 31 °F

Location of MidlandLocation

Historic Weather in Midland — Graph

°F

Midland temperature yesterday

Maximum temperature yesterday: 59 °F (at 3:15 PM)
Minimum temperature yesterday: 33 °F (at 2:15 AM)
Average temperature yesterday: 45 °F

Past Weeks' High & Low Weather Summary

 TemperatureHumidityPressure
High74 °F (Jan 19, 5:15 PM)100% (Jan 11, 12:35 AM)30.46 "Hg (Jan 11, 12:35 AM)
Low28 °F (Jan 13, 8:15 AM)13% (Jan 19, 4:15 PM)29.94 "Hg (Jan 20, 5:15 AM)
Average43 °F68%30.21 "Hg
* Reported Jan 10 10:15 PM — Jan 25 10:15 PM, Midland, Weather by CustomWeather, © 2014

Note: Actual official high and low records may vary slightly from our data, if they occured in-between our weather recording intervals... More about our weather records

Advertising

Midland weather history for previous 24 hours

 ConditionsComfort  
Time TempWeatherWind HumidityBarometerVisibility
10:15 PM
Jan 25
46 °FClear.5 mph56%30.29 "Hg10 mi
9:55 PM47 °FClear.3 mph55%30.28 "Hg10 mi
9:15 PM47 °FClear.3 mph56%30.28 "Hg10 mi
8:55 PM50 °FClear.5 mph46%30.29 "Hg10 mi
8:35 PM51 °FClear.3 mph44%30.28 "Hg10 mi
8:15 PM51 °FClear.3 mph47%30.28 "Hg10 mi
7:55 PM51 °FClear.3 mph46%30.27 "Hg10 mi
7:35 PM52 °FClear.No wind44%30.26 "Hg10 mi
7:15 PM52 °FClear.No wind46%30.25 "Hg10 mi
6:55 PM56 °FClear.No wind34%30.24 "Hg10 mi
6:15 PM59 °FClear.No wind29%30.24 "Hg10 mi
5:55 PM60 °FSunny.No wind29%30.24 "Hg10 mi
5:15 PM62 °FSunny.6 mph27%30.24 "Hg10 mi
4:55 PM62 °FSunny.6 mph26%30.23 "Hg10 mi
4:15 PM62 °FSunny.5 mph25%30.24 "Hg10 mi
3:15 PM62 °FSunny.5 mph24%30.23 "Hg10 mi
2:55 PM63 °FSunny.9 mph24%30.23 "Hg10 mi
2:35 PM63 °FSunny.7 mph24%30.23 "Hg10 mi
2:15 PM62 °FSunny.6 mph24%30.22 "Hg10 mi
1:55 PM62 °FSunny.10 mph23%30.22 "Hg10 mi
1:15 PM60 °FSunny.8 mph24%30.25 "Hg10 mi
12:55 PM59 °FSunny.9 mph25%30.26 "Hg10 mi
12:35 PM58 °FSunny.7 mph27%30.26 "Hg10 mi
12:15 PM58 °FSunny.6 mph25%30.26 "Hg10 mi
11:55 AM57 °FSunny.8 mph28%30.27 "Hg10 mi
11:35 AM56 °FSunny.7 mph30%30.28 "Hg10 mi
11:15 AM54 °FSunny.10 mph33%30.27 "Hg10 mi
10:55 AM54 °FSunny.9 mph35%30.27 "Hg10 mi
10:35 AM53 °FSunny.8 mph38%30.25 "Hg10 mi
10:15 AM52 °FSunny.13 mph42%30.24 "Hg10 mi
9:55 AM50 °FSunny.10 mph46%30.22 "Hg10 mi
9:35 AM47 °FSunny.9 mph54%30.22 "Hg10 mi
9:15 AM45 °FSunny.10 mph59%30.21 "Hg10 mi
8:55 AM44 °FSunny.12 mph61%30.20 "Hg10 mi
8:35 AM42 °FSunny.8 mph66%30.20 "Hg10 mi
8:15 AM39 °FSunny.8 mph71%30.19 "Hg10 mi
7:55 AM38 °FSunny.8 mph73%30.19 "Hg10 mi
7:35 AM38 °FClear.9 mph74%30.18 "Hg10 mi
7:15 AM37 °FClear.7 mph76%30.18 "Hg10 mi
6:55 AM37 °FClear.8 mph75%30.17 "Hg10 mi
6:15 AM37 °FClear.7 mph75%30.15 "Hg10 mi
5:55 AM37 °FClear.7 mph74%30.14 "Hg10 mi
5:35 AM39 °FClear.9 mph68%30.13 "Hg10 mi
5:15 AM39 °FClear.9 mph66%30.11 "Hg10 mi
4:55 AM40 °FClear.9 mph65%30.10 "Hg10 mi
4:15 AM40 °FClear.9 mph64%30.10 "Hg10 mi
3:55 AM40 °FClear.9 mph64%30.10 "Hg10 mi
3:35 AM40 °FClear.9 mph62%30.10 "Hg10 mi
3:15 AM41 °FClear.10 mph60%30.10 "Hg10 mi
2:55 AM41 °FClear.8 mph60%30.10 "Hg10 mi
2:35 AM42 °FClear.8 mph56%30.09 "Hg10 mi
2:15 AM43 °FClear.9 mph52%30.08 "Hg10 mi
1:55 AM43 °FClear.8 mph53%30.08 "Hg10 mi
1:35 AM45 °FClear.10 mph50%30.07 "Hg10 mi
1:15 AM45 °FClear.9 mph47%30.07 "Hg10 mi
12:55 AM45 °FClear.9 mph50%30.07 "Hg10 mi
12:35 AM44 °FClear.8 mph56%30.08 "Hg10 mi
12:15 AM44 °FClear.7 mph60%30.07 "Hg10 mi
11:55 PM
Jan 24
45 °FClear.9 mph58%30.07 "Hg10 mi
11:35 PM45 °FClear.10 mph58%30.08 "Hg10 mi
11:15 PM46 °FClear.10 mph57%30.08 "Hg10 mi
Weather by CustomWeather, © 2014

See weather overviewHow to use our weather pages